Weather past 2 weeks in Jamestown, Saint Helena

Now
59 °F

Cool.


Feels Like: 55 °F
Forecast: 66 / 68 °F
Wind: 18 mph from Southeast

Location: Saint Helena Island

Current Time: Aug 5, 2015 at 5:23:36 AM

Latest Report: Aug 5, 2015 at 3:00 AM


Visibility: N/A

Pressure: 30.12 "Hg

Humidity: 79%

Dew point: 52 °F

Location of JamestownLocation

Historic Weather in Jamestown — Graph

°F

Jamestown temperature yesterday

Maximum temperature yesterday: 62 °F (at 12:00 PM)
Minimum temperature yesterday: 58 °F (at 10:00 PM)
Average temperature yesterday: 60 °F

Past Weeks' High & Low Weather Summary

 TemperatureHumidityPressure
High67 °F (Aug 2, 1:00 PM)100% (Jul 24, 6:00 PM)30.27 "Hg (Jul 24, 6:00 PM)
Low55 °F (Aug 2, 4:00 AM)57% (Aug 2, 12:00 PM)30.05 "Hg (Aug 1, 4:00 PM)
Average59 °F85%30.17 "Hg
* Reported Jul 21 2:00 AM — Aug 5 2:00 AM, Jamestown, Weather by CustomWeather, © 2015

Note: Actual official high and low records may vary slightly from our data, if they occured in-between our weather recording intervals... More about our weather records

Advertising

Jamestown weather history for previous 24 hours

 ConditionsComfort  
Time TempWeatherWind HumidityBarometerVisibility
2:00 AM
Wed, Aug 5
59 °FCool.17 mph80%30.14 "HgN/A
1:00 AM59 °FCool.18 mph79%30.16 "HgN/A
11:00 PM
Tue, Aug 4
58 °FCool.21 mph88%30.18 "HgN/A
10:00 PM58 °FCool.24 mph98%30.17 "HgN/A
8:00 PM58 °FCool.17 mph92%30.16 "HgN/A
7:00 PM60 °FCool.20 mph79%30.13 "HgN/A
6:00 PM60 °FCool.20 mph85%30.13 "HgN/A
5:00 PM61 °FCool.20 mph74%30.12 "HgN/A
4:00 PM61 °FCool.21 mph74%30.12 "HgN/A
3:00 PM62 °FOvercast.18 mph74%30.13 "Hg9 mi
2:00 PM61 °FOvercast.21 mph74%30.14 "Hg9 mi
1:00 PM60 °FOvercast.21 mph87%30.16 "Hg7 mi
12:00 PM62 °FOvercast.20 mph70%30.18 "Hg11 mi
11:00 AM61 °FCool.20 mph70%30.19 "HgN/A
10:00 AM60 °FCool.23 mph71%30.19 "HgN/A
9:00 AM60 °FCool.20 mph73%30.19 "HgN/A
8:00 AM59 °FCool.20 mph74%30.18 "HgN/A
Weather by CustomWeather, © 2015

See weather overviewHow to use our weather pages